Temperature
17 17 17 17 17 17 17 17 17 17 17 17 17 16 16 16 16 16 16 16 16 16 16 16 16 16 16 16 16 16 16 16 16 16 16 16 16 16 16 16 16 16 16
17 17 17 17 17 17 17 16 16 16 16 16 16 16 16 16 16 16 16 16 16 16 16 16 16 16 16 16 16 15 15 15 15 15 16 15 16 16 15 15 15 15 15
17 17 17 17 17 17 16 16 16 16 16 16 16 16 16 16 16 16 16 16 16 15 15 15 15 15 15 15 15 15 15 15 15 15 15 15 15 15 15 15 14 14 14
17 17 17 17 17 17 16 16 16 16 16 16 16 16 16 16 15 15 15 15 15 15 15 15 15 14 14 14 14 14 14 14 14 14 14 14 14 14 14 14 14 14 14
17 17 17 17 17 16 16 16 16 16 16 16 16 16 15 15 15 15 15 15 15 14 14 14 14 13 13 13 13 13 13 13 13 13 13 13 13 12 12 12 12 12 13
17 17 17 16 16 16 16 16 16 16 15 15 15 15 15 15 15 14 14 14 14 13 13 13 13 12 12 12 12 12 12 12 12 12 12 11 11 11 11 10 10 11 11
17 17 16 16 16 16 16 15 15 15 15 15 15 14 14 14 14 14 13 13 13 13 12 12 12 12 12 12 11 11 11 11 11 10 10 10 10 9 9 9 9 9 9
17 16 16 16 16 16 15 15 15 15 14 14 14 14 13 13 13 13 12 12 12 12 11 11 11 11 11 11 10 10 10 10 9 9 9 8 8 8 8 8 8 8 8
17 16 16 16 16 16 15 15 14 14 14 13 13 13 13 12 12 12 12 11 11 11 10 10 10 10 10 9 9 9 9 9 8 8 8 7 7 7 7 7 7 7 7
16 16 16 16 15 15 14 14 13 13 13 12 12 11 11 11 11 11 11 11 10 10 10 9 9 9 8 8 8 8 8 8 7 7 7 7 6 6 6 6 6 5 5
16 15 15 15 14 14 13 13 13 12 12 11 11 11 10 10 10 10 10 10 10 9 9 9 8 8 7 7 7 7 6 6 6 6 6 6 6 5 5 5 5 4 4
15 14 14 14 13 13 13 12 12 11 11 10 10 10 10 9 9 9 9 9 9 8 8 8 7 7 7 6 6 6 6 5 5 5 5 5 5 4 4 4 4 4 3
14 13 13 13 12 12 12 11 11 10 10 10 9 9 9 9 9 8 8 8 8 7 7 7 6 6 6 6 5 5 5 5 4 4 4 4 3 3 3 3 3 3 3
13 12 12 12 11 11 10 10 10 10 9 9 9 9 8 8 8 8 7 7 7 6 6 6 6 5 5 5 5 4 4 4 3 3 3 2 2 2 2 2 2 2 2
12 11 11 10 10 10 9 9 9 9 9 9 8 8 8 7 7 7 6 6 6 6 5 5 5 5 4 4 4 3 3 3 2 2 2 2 1 1 1 1 1 1 1
11 10 10 10 9 9 9 8 8 8 8 7 7 7 7 6 6 6 5 5 5 5 5 5 4 4 3 3 3 2 2 2 1 1 1 1 1 0 0 0 0 -0 -0
10 10 9 9 9 9 8 8 7 7 7 7 6 6 6 6 5 5 5 5 5 4 4 4 3 3 2 2 2 2 1 1 1 0 0 0 0 0 -0 -0 -0 -0 -0
9 9 9 8 8 8 8 8 7 7 6 6 6 5 5 5 5 5 4 4 4 4 3 3 2 2 2 2 1 1 1 1 0 0 -0 -0 -0 -0 -0 -0 -0 -1 -1
9 8 8 8 8 8 7 7 7 6 6 6 5 5 5 4 4 4 4 4 3 3 2 2 2 2 1 1 1 1 0 0 -0 -0 -0 -0 -0 -0 -0 -1 -1 -1 -1
8 8 8 8 8 7 7 7 6 6 6 5 5 5 4 4 4 4 3 3 3 2 2 2 1 1 1 1 1 0 0 -0 -0 -0 -0 -0 -0 -1 -1 -1 -1 -1 -1
8 8 8 8 7 7 7 7 6 6 5 5 5 4 4 4 3 3 3 2 2 2 2 1 1 1 1 1 0 0 -0 -0 -0 -0 -0 -0 -1 -1 -1 -1 -1 -1 -1
8 8 8 7 7 7 7 6 6 6 5 5 4 4 4 4 3 3 3 2 2 2 1 1 1 1 1 0 0 -0 -0 -0 -1 -1 -1 -1 -1 -1 -1 -1 -1 -1 -1
8 8 7 7 7 7 6 6 6 5 5 4 4 4 4 3 3 3 2 2 2 1 1 1 1 1 0 0 0 -0 -0 -0 -1 -1 -1 -1 -1 -1 -1 -1 -1 -1 -1
8 7 7 7 7 6 6 6 5 5 5 4 4 4 3 3 3 2 2 2 2 1 1 1 1 1 0 0 0 -0 -0 -0 -0 -1 -1 -1 -1 -1 -1 -1 -1 -1 -1
7 7 7 7 6 6 6 5 5 5 5 4 4 3 3 3 3 2 2 2 2 1 1 1 1 1 0 0 0 0 -0 -0 -0 -1 -1 -1 -1 -1 -1 -1 -1 -1 -1
7 7 7 6 6 6 6 5 5 5 4 4 4 3 3 3 3 2 2 2 2 1 1 1 1 1 1 0 0 0 -0 -0 -0 -0 -1 -1 -1 -1 -1 -1 -1 -1 -1
Wind_Speed
8 7 8 7 7 8 7 7 6 5 6 7 6 6 6 5 5 4 3 3 3 2 1 2 1 1 2 2 2 2 2 2 2 3 2 3 3 3 3 3 4 5 7
9 8 8 8 8 8 7 7 7 6 6 6 6 5 5 4 5 5 4 3 3 3 2 3 2 2 3 3 3 3 2 2 1 1 2 3 3 3 3 3 4 5 6
9 9 9 9 9 8 8 7 7 7 6 6 6 5 4 4 4 4 4 4 4 4 4 4 3 4 4 3 4 3 3 3 2 1 2 2 2 3 3 3 4 5 7
10 10 10 9 9 8 7 7 7 7 7 7 6 6 5 5 5 5 6 6 7 6 6 6 6 5 4 4 4 4 3 4 3 2 2 3 3 3 3 3 4 4 5
10 10 9 9 9 8 8 7 7 7 8 7 7 7 6 5 4 6 7 7 8 8 8 7 7 9 8 6 5 4 4 4 3 3 3 3 3 4 3 3 4 4 4
10 9 8 9 9 9 9 9 9 9 9 9 9 8 7 5 7 10 9 7 8 8 7 7 8 9 10 11 11 10 8 5 3 3 2 2 3 3 3 3 3 4 4
9 9 9 9 9 9 10 9 10 10 11 11 10 10 9 8 12 13 13 9 9 8 7 7 7 8 9 7 9 12 12 13 9 3 3 2 2 3 3 3 3 3 4
9 9 9 9 9 10 10 11 11 10 11 11 10 10 10 11 14 15 15 11 11 10 9 8 8 7 8 7 7 8 8 7 8 6 3 3 4 4 2 2 3 4 4
9 9 9 10 11 11 11 12 12 12 12 11 10 10 11 11 13 14 13 10 10 9 8 7 7 7 9 10 8 7 7 7 10 13 12 11 11 12 8 4 4 4 4
10 10 10 11 12 12 12 13 12 13 13 12 12 11 11 11 13 13 12 8 8 6 6 6 8 7 8 8 6 6 6 5 7 9 10 11 12 13 13 6 3 3 3
11 12 12 12 12 13 13 12 13 13 13 13 13 11 11 11 13 14 11 7 6 6 4 3 3 7 7 8 6 4 3 3 4 6 6 6 6 7 8 9 6 2 3
13 14 13 12 12 13 13 12 12 14 14 13 12 10 8 8 10 12 13 11 8 6 3 2 3 6 7 8 6 6 8 7 5 5 5 5 5 5 5 8 10 9 6
15 15 14 14 12 12 13 13 12 11 11 10 9 8 6 6 7 11 12 12 11 6 3 5 6 8 8 7 9 10 8 6 5 5 4 4 4 5 5 6 7 10 11
16 15 14 14 13 12 10 9 9 9 10 9 8 7 6 5 5 5 6 6 8 7 5 7 10 12 9 9 8 7 6 4 3 3 3 4 4 5 5 4 4 5 5
17 15 14 13 13 13 11 9 8 6 8 10 7 7 7 5 3 5 5 4 4 4 5 6 7 6 7 6 5 5 5 5 5 4 4 4 4 5 5 5 4 4 5
15 14 12 11 11 11 13 12 16 13 14 14 11 9 6 7 7 8 8 8 9 9 8 6 5 5 5 4 4 4 4 4 4 4 4 4 5 5 5 5 5 5 6
14 13 11 11 10 10 11 12 11 10 13 12 11 11 9 8 9 10 11 12 11 11 8 5 4 4 3 3 3 3 3 4 4 4 4 5 5 6 6 7 7 7 7
13 13 12 10 9 9 9 9 9 9 7 4 5 6 7 8 9 11 11 10 8 7 4 4 3 3 2 2 2 2 3 4 4 4 4 5 5 6 7 7 8 8 9
11 9 9 9 9 8 8 7 7 7 6 4 3 4 6 8 9 10 9 6 4 3 3 2 2 2 1 1 1 2 2 3 3 4 4 6 6 6 7 8 8 11 10
10 14 12 9 9 8 8 7 7 6 5 4 3 2 3 5 5 4 4 3 3 2 2 1 1 1 1 1 1 1 2 3 4 4 5 6 6 6 7 9 9 9 9
8 10 14 10 8 8 8 7 7 6 5 4 3 4 7 5 4 4 3 2 2 1 1 1 1 0 0 0 0 1 2 3 4 5 6 6 7 7 7 7 8 9 9
8 7 7 8 8 7 7 7 7 7 6 6 4 4 8 6 4 3 2 1 1 1 1 1 1 1 1 1 1 1 2 4 5 6 6 7 7 7 7 7 8 9 9
8 8 8 7 7 9 8 7 7 7 6 6 5 4 4 4 3 3 2 1 0 0 1 1 1 1 1 1 2 2 2 4 5 5 6 7 7 7 7 8 10 11 11
8 9 8 7 7 7 7 6 6 7 6 5 5 4 4 4 3 3 2 1 0 1 0 1 2 3 3 3 4 4 6 7 9 9 9 7 8 8 8 8 9 10 10
7 7 7 7 7 7 7 6 6 6 6 5 5 4 4 3 3 3 2 1 1 2 2 2 3 4 5 6 6 6 7 8 10 11 10 8 7 8 8 9 9 10 10
7 7 6 6 6 6 6 6 6 6 5 5 4 4 4 4 3 3 2 2 2 3 4 5 6 6 7 8 7 7 7 9 10 11 11 8 6 7 8 8 10 10 10
Wind_Direction
168 168 163 162 155 147 150 155 154 153 156 161 163 161 159 156 151 145 154 147 144 137 113 108 74 61 54 40 54 62 70 127 194 289 298 327 2 354 348 322 295 286 277
172 167 167 164 153 149 151 152 148 146 150 151 150 149 151 147 145 148 156 135 128 123 100 86 60 72 56 41 49 44 40 54 141 290 323 342 358 355 350 352 347 331 312
170 168 168 164 158 157 156 150 145 142 138 134 131 131 127 119 115 124 127 112 103 94 88 85 65 74 63 53 52 43 32 38 53 66 327 335 343 2 359 353 355 354 342
168 168 168 169 164 158 151 144 138 133 129 124 116 113 109 101 96 98 101 97 91 82 78 76 67 68 70 61 56 41 39 36 33 38 6 350 344 343 13 355 344 346 337
164 167 170 164 155 147 142 136 129 123 120 114 107 97 92 94 100 109 107 106 101 92 80 74 70 70 66 62 64 50 50 46 35 29 13 3 357 0 356 343 338 327 323
161 165 158 150 146 143 140 131 121 112 103 98 95 93 84 85 92 100 106 104 103 101 92 79 72 56 55 56 59 57 55 52 42 34 15 2 339 333 331 341 342 351 324
155 154 150 147 141 137 133 123 118 113 107 100 94 90 84 76 83 93 96 97 96 94 89 80 73 57 47 47 50 50 44 44 46 51 22 339 316 310 325 328 328 314 283
151 150 146 139 133 129 124 120 115 110 105 101 95 90 85 75 82 89 91 89 87 84 83 81 76 53 42 49 53 47 36 26 25 31 6 311 311 302 287 286 286 304 295
146 145 141 136 132 128 125 122 118 111 105 99 95 89 85 73 75 83 90 90 88 80 78 77 77 63 47 54 56 44 26 8 13 17 21 24 25 24 21 20 3 1 328
138 131 126 125 124 124 123 119 115 111 108 102 91 84 83 77 73 80 87 96 95 88 71 58 60 57 48 56 60 50 26 353 355 7 15 20 24 24 27 31 14 354 326
120 116 113 111 113 116 115 116 117 115 110 103 96 84 77 73 67 71 80 90 101 95 75 43 23 35 46 53 60 60 26 9 11 17 16 12 9 10 8 7 7 7 336
110 107 105 105 108 110 112 112 114 117 112 107 99 85 68 61 61 65 69 75 85 87 66 22 10 35 52 55 57 49 41 42 35 28 22 8 2 355 346 346 350 347 331
106 103 100 96 94 98 105 110 111 112 114 110 105 96 78 58 51 56 62 63 62 65 46 45 56 58 54 47 46 47 45 44 37 29 12 349 330 326 332 337 340 343 336
107 103 100 98 91 84 85 93 105 111 114 113 111 105 91 69 52 43 44 47 44 45 40 44 53 57 58 51 44 42 41 41 41 20 343 325 329 339 341 335 329 332 330
106 103 99 95 96 88 78 70 86 86 118 123 122 123 115 94 63 69 64 46 43 52 60 53 50 48 46 40 37 31 24 20 17 357 350 343 339 339 329 329 328 330 324
109 108 107 105 102 102 98 82 60 75 88 98 110 113 97 105 95 67 57 63 69 78 77 65 56 54 54 46 37 19 8 2 352 349 349 345 338 332 327 327 326 321 315
114 115 114 114 114 112 111 111 101 70 66 79 92 98 100 96 76 63 67 76 74 78 75 69 61 52 47 40 32 21 359 346 350 358 357 349 342 335 330 326 325 322 317
114 119 122 123 123 121 120 119 121 121 109 73 58 78 86 79 70 68 72 74 58 54 70 75 65 54 53 40 24 15 2 357 359 353 346 338 334 330 326 321 319 317 316
114 121 123 126 128 127 127 123 120 118 116 106 69 47 60 72 69 69 75 84 88 70 65 67 69 71 61 37 18 8 5 354 344 337 331 327 324 322 318 315 314 314 314
109 116 119 121 122 122 124 124 123 123 120 111 100 95 80 81 75 62 66 84 92 92 83 79 72 88 79 16 355 353 351 341 334 326 319 317 315 313 310 310 311 312 311
108 113 114 114 118 122 126 128 129 128 127 123 120 123 125 111 109 103 96 92 106 122 124 126 149 154 138 345 332 331 331 319 313 310 309 308 309 310 308 305 305 305 306
109 109 110 113 115 116 121 125 127 127 128 125 118 105 110 108 111 112 110 113 136 156 160 159 171 197 206 201 197 245 304 304 305 307 305 305 306 307 307 307 308 309 309
110 110 108 108 111 115 116 119 123 126 128 131 130 120 115 119 123 126 125 128 129 37 48 104 139 185 178 190 215 225 259 280 283 289 298 304 307 307 306 305 305 308 310
113 115 116 114 113 115 119 121 124 128 129 129 129 130 134 137 139 145 153 156 188 280 322 163 179 194 208 236 256 274 287 295 300 298 294 291 297 300 302 302 303 304 306
115 118 121 121 121 121 121 121 124 127 130 134 136 137 142 147 155 169 189 205 219 239 245 220 217 226 238 249 262 277 296 309 313 313 307 292 289 295 300 302 305 309 310
119 119 119 120 122 125 126 129 133 137 140 145 147 153 159 167 180 194 208 218 229 241 245 246 249 249 250 251 259 274 296 310 318 323 319 302 293 301 310 310 312 315 314
Height
1498 1502 1505 1508 1512 1516 1519 1523 1526 1529 1531 1534 1536 1538 1540 1542 1544 1546 1547 1549 1550 1550 1552 1552 1553 1553 1554 1554 1554 1554 1554 1554 1553 1553 1553 1552 1552 1551 1551 1551 1551 1551 1550
1497 1500 1504 1507 1511 1514 1518 1522 1525 1527 1530 1533 1535 1537 1539 1541 1543 1545 1546 1547 1548 1549 1550 1550 1551 1551 1551 1551 1551 1551 1551 1550 1550 1549 1549 1549 1548 1548 1547 1547 1547 1546 1546
1496 1499 1502 1506 1509 1513 1517 1521 1524 1526 1529 1531 1533 1536 1538 1539 1541 1543 1544 1546 1546 1547 1548 1548 1549 1549 1549 1549 1548 1548 1548 1547 1547 1546 1545 1545 1544 1544 1543 1543 1542 1542 1541
1494 1498 1501 1505 1508 1512 1516 1519 1522 1525 1527 1530 1532 1534 1536 1538 1539 1541 1542 1543 1544 1544 1545 1546 1546 1546 1546 1546 1546 1545 1545 1544 1543 1543 1542 1541 1540 1539 1538 1537 1536 1536 1535
1494 1497 1501 1504 1508 1511 1515 1518 1520 1523 1526 1528 1530 1532 1534 1535 1537 1538 1539 1540 1541 1542 1543 1543 1544 1544 1544 1544 1543 1542 1542 1541 1540 1539 1538 1537 1536 1535 1534 1532 1531 1530 1529
1494 1497 1500 1504 1507 1510 1513 1517 1519 1522 1524 1526 1529 1530 1532 1533 1535 1536 1537 1538 1539 1540 1541 1541 1542 1542 1542 1542 1541 1540 1539 1538 1537 1536 1535 1534 1533 1532 1530 1529 1527 1525 1524
1493 1496 1500 1502 1505 1509 1512 1515 1518 1520 1523 1525 1527 1529 1531 1532 1533 1534 1536 1537 1538 1539 1540 1540 1541 1541 1540 1540 1539 1538 1537 1536 1535 1534 1532 1531 1530 1528 1527 1525 1524 1522 1520
1492 1495 1499 1502 1505 1507 1511 1513 1516 1519 1521 1524 1526 1528 1530 1531 1533 1534 1535 1536 1537 1538 1539 1539 1540 1539 1539 1538 1537 1536 1535 1534 1533 1531 1530 1529 1527 1526 1524 1522 1520 1518 1517
1491 1494 1497 1500 1503 1505 1508 1511 1514 1517 1520 1523 1525 1528 1530 1531 1533 1534 1536 1536 1537 1538 1538 1539 1539 1538 1538 1537 1536 1535 1534 1533 1532 1530 1528 1527 1525 1523 1521 1519 1517 1515 1512
1489 1492 1496 1499 1501 1503 1506 1509 1513 1516 1519 1522 1525 1528 1530 1532 1534 1535 1537 1537 1537 1538 1538 1538 1537 1537 1536 1535 1534 1533 1532 1531 1530 1528 1527 1525 1523 1521 1519 1517 1514 1512 1509
1488 1491 1495 1498 1500 1502 1505 1508 1512 1515 1518 1521 1525 1529 1531 1533 1535 1536 1537 1537 1537 1537 1537 1537 1536 1536 1535 1534 1533 1532 1531 1530 1528 1527 1525 1523 1521 1519 1517 1515 1513 1510 1507
1487 1490 1494 1497 1500 1503 1505 1509 1512 1516 1519 1522 1526 1529 1532 1534 1536 1537 1537 1537 1537 1536 1536 1536 1536 1535 1535 1534 1532 1531 1530 1529 1527 1525 1523 1521 1519 1516 1514 1512 1510 1508 1505
1487 1491 1494 1498 1501 1504 1507 1510 1514 1518 1520 1523 1527 1530 1532 1534 1536 1537 1537 1536 1536 1535 1535 1535 1535 1535 1534 1533 1532 1530 1529 1527 1525 1523 1521 1519 1517 1514 1512 1509 1506 1503 1501
1487 1492 1496 1499 1502 1506 1510 1513 1516 1519 1522 1526 1528 1531 1533 1535 1536 1536 1536 1536 1536 1536 1536 1535 1535 1534 1533 1532 1531 1529 1528 1526 1524 1522 1519 1517 1515 1512 1509 1505 1501 1498 1494
1489 1494 1498 1501 1505 1509 1513 1517 1520 1523 1526 1528 1530 1532 1533 1535 1536 1537 1537 1537 1537 1536 1536 1535 1535 1534 1533 1532 1530 1529 1527 1525 1523 1520 1518 1515 1512 1509 1505 1502 1498 1495 1491
1492 1497 1501 1505 1509 1512 1515 1519 1523 1526 1529 1531 1533 1534 1535 1536 1536 1537 1537 1538 1537 1537 1536 1535 1535 1534 1533 1532 1530 1528 1526 1524 1521 1519 1516 1512 1509 1506 1502 1499 1495 1492 1488
1496 1500 1505 1509 1512 1516 1518 1521 1524 1528 1531 1533 1534 1535 1536 1537 1538 1538 1538 1538 1538 1537 1536 1535 1535 1534 1533 1531 1530 1527 1525 1523 1520 1517 1514 1510 1507 1503 1499 1495 1492 1488 1484
1502 1505 1509 1513 1516 1519 1522 1525 1527 1530 1532 1534 1536 1537 1538 1538 1539 1539 1539 1539 1538 1538 1537 1536 1535 1534 1532 1531 1529 1527 1524 1521 1518 1515 1512 1508 1504 1500 1496 1492 1489 1485 1481
1507 1510 1514 1517 1520 1523 1526 1528 1531 1533 1534 1536 1537 1538 1539 1540 1540 1540 1540 1539 1538 1538 1537 1536 1535 1533 1532 1530 1528 1525 1523 1520 1517 1513 1510 1506 1501 1497 1493 1489 1486 1482 1478
1512 1515 1518 1520 1523 1526 1528 1530 1532 1534 1536 1537 1538 1539 1540 1541 1541 1540 1540 1539 1539 1538 1537 1536 1534 1533 1531 1529 1527 1524 1521 1518 1515 1511 1507 1503 1499 1495 1491 1487 1483 1479 1476
1516 1518 1521 1523 1525 1528 1530 1532 1534 1536 1537 1539 1540 1540 1541 1541 1541 1540 1540 1539 1539 1538 1536 1535 1534 1532 1530 1528 1526 1523 1520 1516 1513 1509 1505 1501 1497 1493 1489 1485 1481 1477 1473
1519 1521 1523 1525 1528 1530 1532 1534 1535 1537 1538 1539 1540 1541 1541 1541 1541 1541 1540 1539 1538 1537 1536 1534 1533 1531 1529 1526 1524 1521 1518 1514 1510 1506 1502 1498 1494 1490 1486 1482 1479 1475 1471
1522 1524 1526 1528 1530 1532 1534 1535 1536 1538 1539 1540 1541 1541 1542 1541 1541 1540 1540 1539 1538 1537 1535 1533 1532 1530 1527 1525 1522 1519 1515 1512 1508 1504 1499 1495 1491 1488 1484 1480 1476 1472 1468
1524 1526 1528 1530 1531 1533 1534 1536 1537 1538 1540 1540 1541 1541 1541 1541 1541 1540 1539 1538 1537 1536 1534 1532 1530 1528 1526 1523 1520 1517 1513 1509 1505 1501 1497 1493 1489 1485 1481 1477 1474 1470 1466
1526 1528 1530 1531 1532 1534 1535 1536 1538 1539 1540 1540 1541 1541 1541 1541 1540 1539 1539 1537 1536 1535 1533 1531 1529 1526 1524 1521 1518 1514 1511 1507 1503 1499 1495 1491 1487 1483 1479 1475 1471 1467 1463
1528 1529 1530 1532 1533 1535 1536 1537 1538 1539 1539 1540 1540 1540 1540 1540 1539 1539 1538 1536 1535 1533 1531 1529 1527 1524 1521 1518 1515 1512 1508 1504 1501 1497 1493 1489 1485 1481 1477 1473 1469 1465 1461